Location: Drusenheim
(48.7643°N, 7.9505°E)
Time: 13:27:38
(UTC+00:00)

Daily predictions for brighter satellites

Satellite Brightness Start Highest point End
(mag) Time Altitude Azimuth Time Altitude Azimuth Time Altitude Azimuth
CZ-4C R/B 3.9 18:53:42 10° W 18:58:36 37° NNW 19:04:30 10° NE
MetOp-A 4.2 18:53:18 10° SSE 18:58:40 85° ENE 19:04:03 10° NNW
Cosmos 2227 Rocket 3.4 18:55:02 10° SE 18:59:01 20° E 19:03:00 10° NE
BREEZE-M DEB (TANK) 3.6 18:57:35 10° WSW 19:00:29 71° SSE 19:07:44 10° ENE
Cosmos 1092 Rocket 4.1 18:54:25 10° N 19:00:43 90° WNW 19:06:53 10° S
ATLAS 2AS CENTAUR R/B 3.3 18:52:51 10° SW 19:00:48 78° NW 19:08:35 10° NE
Cosmos 2058 2.9 18:59:12 10° N 19:03:24 74° E 19:07:33 10° SSE
Cosmos 2297 Rocket 3.0 19:00:44 10° SSE 19:05:28 28° ESE 19:10:13 10° NE
Cosmos 1633 3.9 19:03:05 10° NNE 19:06:00 22° ENE 19:08:51 10° SE
Lacrosse 5 rocket 3.3 19:03:48 10° WNW 19:07:21 27° N 19:11:04 10° NE
Cosmos 405 3.5 19:04:02 10° SSW 19:07:28 64° WNW 19:10:57 10° N
FALCON 9 DEB 4.2 19:08:36 10° S 19:10:54 20° SE 19:13:11 10° E
Resurs 01 Rocket 2.5 19:09:14 10° SE 19:13:12 33° ENE 19:17:12 10° N
Genesis I 3.9 19:09:59 10° NNW 19:13:51 44° NE 19:17:40 10° ESE
Cosmos 2219 3.9 19:09:47 10° SSE 19:14:35 30° ESE 19:19:24 10° NE
Resurs 1-3 3.8 19:10:36 10° SSE 19:14:51 53° ENE 19:19:09 10° N
BREEZE-M DEB (TANK) 3.5 19:11:55 10° WSW 19:15:36 84° SSE 19:28:23 10° ENE
Cosmos 2333 Rocket 3.6 19:10:36 10° NW 19:15:55 39° WSW 19:21:11 10° S
Cosmos 1689 Rocket 4.4 19:15:37 10° N 19:18:08 29° WNW 19:20:37 10° SW
SJ-6B 2.8 19:15:04 10° S 19:18:48 80° WSW 19:22:36 10° NNW
CZ-2C R/B 3.9 19:15:19 10° N 19:20:16 46° WNW 19:25:17 10° SW
Cosmos 2084 Rocket 4.4 19:19:24 10° S 19:22:34 23° ESE 19:25:48 10° ENE
ERS-2 3.0 19:19:04 10° N 19:22:38 54° WNW 19:26:11 10° SSW
FALCON 9 DEB 3.9 19:20:18 10° SSW 19:22:53 26° SE 19:25:29 10° E
Cosmos 389 Rocket 2.7 19:19:51 10° S 19:23:15 48° E 19:26:44 10° NNE
Ariane Rocket 3.0 19:20:12 10° SSE 19:25:15 80° ENE 19:30:20 10° NNW
Cosmos 614 Rocket 3.9 19:21:43 10° SSW 19:26:49 73° ESE 19:31:55 10° NNE
Terra 4.0 19:26:35 10° ENE 19:28:03 11° NE 19:29:31 10° NE
Cosmos 2251 Rocket 3.7 19:23:13 10° SSW 19:28:36 83° WNW 19:33:58 10° NNE
FALCON 9 DEB 3.5 19:25:59 10° WSW 19:29:23 66° NNW 19:32:49 10° ENE
ATLAS 3B R/B 3.5 19:23:43 10° NW 19:30:31 53° WSW 19:37:33 10° SSE
Cosmos 2279 Rocket 4.0 19:27:24 10° S 19:33:32 68° E 19:39:42 10° NNE
SPOT 1/Viking Rocket 4.4 19:33:39 13° SE 19:37:43 35° ENE 19:42:26 10° N
Cosmos 1980 3.8 19:32:48 10° NNW 19:38:32 84° WSW 19:44:11 10° SSE
MOS 1 4.4 19:32:59 10° SSE 19:38:38 80° WSW 19:44:19 10° NNW
SL-16 R/B 2.9 19:33:44 10° NNW 19:39:06 40° NE 19:43:26 15° ESE
Cosmos-2242 3.8 19:35:48 10° SSE 19:39:40 33° E 19:43:32 10° NNE
Cosmos 2151 3.2 19:36:16 10° N 19:40:31 53° ENE 19:44:09 13° SSE
USA 215 3.7 19:34:24 10° E 19:40:48 59° NNE 19:47:13 10° NW
FALCON 9 DEB 3.5 19:41:51 10° SSW 19:44:38 32° SE 19:46:41 15° E
SPOT 3 Rocket 3.6 19:40:39 11° SSE 19:45:31 64° ENE 19:50:40 10° N
Cosmos 1455 4.1 19:44:13 10° SW 19:47:35 31° WNW 19:50:59 10° N
COSMOS 2455 3.6 19:43:38 10° SSE 19:48:40 29° ESE 19:53:43 10° NE
SL-4 R/B 2.6 19:47:28 10° SW 19:51:35 41° SE 19:55:58 10° ENE
ATLAS 5 CENTAUR R/B 4.5 19:49:08 10° NW 19:52:00 16° N 19:55:06 10° NNE
Cosmos 2219 Rocket 4.3 19:48:15 10° NW 19:52:45 24° WSW 19:57:13 10° SSW
ERS-1 Rocket 4.2 19:53:54 17° ESE 19:56:40 27° ENE 20:00:50 10° N
Cosmos 1076 Rocket 4.1 19:52:26 10° NNW 19:56:44 59° W 20:00:57 10° S
Cosmos 2266 Rocket 4.1 19:50:56 10° N 19:57:17 65° ENE 20:02:36 15° SSE
IGS 5A 3.4 19:54:20 16° SSE 19:57:32 71° ENE 20:01:42 10° N
OBJECT-B 3.1 19:56:05 10° SSW 19:58:46 24° W 20:01:28 10° NW
Landsat 7 3.8 19:55:13 16° SSE 19:58:57 68° ENE 20:03:41 10° N
Cosmos 2221 4.3 20:05:06 15° E 20:05:15 15° E 20:07:46 10° NE
ARIANE 5 R/B 3.3 20:04:04 23° ESE 20:06:17 40° ENE 20:10:23 10° N
Cosmos 2344 3.9 19:58:55 10° SW 20:06:19 70° NW 20:14:30 10° NE
USA 245 3.4 20:05:50 28° ESE 20:07:06 41° ENE 20:09:57 10° N
Cosmos 407 Rocket 3.4 20:02:15 10° SSW 20:07:24 87° ESE 20:12:37 10° NNE
Orbus 7S? 4.4 20:09:20 10° W 20:12:26 51° NNW 20:18:40 10° ENE
Cosmos 1023 Rocket 4.4 20:07:22 10° SSW 20:12:27 88° ESE 20:17:35 10° NNE
Meteor 2-3 Rocket 3.7 20:07:32 10° NNW 20:13:20 87° E 20:17:47 17° SSE
MetOp-B 4.1 20:09:16 18° SSE 20:13:21 83° ENE 20:18:45 10° NNW
Cosmos 44 Rocket 3.8 20:14:19 10° S 20:19:00 39° ESE 20:23:49 10° NE
Meteor 1-27 4.3 20:14:09 13° S 20:19:16 61° E 20:25:01 10° NNE
Cosmos 1140 Rocket 3.5 20:15:32 10° SSW 20:20:40 83° WNW 20:25:51 10° NNE
Cosmos 1812 Rocket 4.4 20:18:07 10° SSW 20:22:28 53° WNW 20:26:53 10° N
CZ-2C R/B 3.5 20:19:49 10° NNE 20:24:17 74° ESE 20:27:43 16° S
Cosmos 1954 Rocket 4.0 20:19:42 10° S 20:24:46 60° ESE 20:29:52 10° NNE
Cosmos 2237 Rocket 3.2 20:20:55 10° NW 20:26:09 40° WSW 20:30:47 13° S
Timation 2 Rocket 4.0 20:21:08 10° SSW 20:27:42 86° ESE 20:34:01 10° NNE
Cosmos 2263 Rocket 3.6 20:34:38 19° E 20:34:38 19° E 20:37:48 10° NE
Cosmos 1766 Rocket 3.4 20:30:14 10° N 20:34:36 81° ENE 20:36:22 35° SSE
USA 229 DEB 4.4 20:27:40 10° NW 20:34:39 51° NE 20:39:35 22° ESE
Spot 2 Rocket 3.4 20:32:07 29° SSE 20:34:44 79° ENE 20:39:49 10° NNW
USA 229 4.4 20:27:46 10° NW 20:34:44 51° NE 20:39:41 21° ESE
CARTOSAT-1 3.6 20:33:27 37° SE 20:35:00 64° ENE 20:39:18 10° N
BREEZE M DEB (TANK) 2.3 20:28:16 10° WSW 20:35:22 86° S 20:36:34 36° E
Cosmos 1633 4.4 20:37:40 10° NNW 20:40:45 27° W 20:43:20 13° SW
FALCON 9 DEB 2.7 20:38:38 10° WSW 20:41:38 85° SW 20:41:38 85° SW
Cosmos 2227 Rocket 2.4 20:36:47 10° SW 20:42:27 74° WNW 20:48:08 10° NNE
Cosmos 2082 3.6 20:37:15 11° SSW 20:42:34 64° ESE 20:48:08 10° NNE
Okean 3 Rocket 3.6 20:39:13 10° N 20:43:46 83° W 20:45:39 35° S
H-2A R/B 4.4 20:41:17 10° NNE 20:44:42 31° E 20:44:42 31° E
FALCON 9 DEB 2.8 20:43:18 10° WSW 20:46:19 76° NNW 20:46:28 73° N
Lacrosse 5 rocket 2.8 20:43:29 10° NW 20:47:24 34° NNE 20:49:58 19° ENE
Cosmos 2297 Rocket 2.9 20:43:40 10° SW 20:49:12 54° NW 20:54:47 10° NNE
Cosmos 1869 3.2 20:47:58 37° SSW 20:49:29 84° W 20:53:27 10° N
Resurs 01 Rocket 3.2 20:46:10 12° SSW 20:49:41 31° W 20:53:40 10° NNW
Cosmos 468 Rocket 3.9 20:44:48 10° NNW 20:49:58 79° ENE 20:51:46 41° SE
Cosmos 1553 Rocket 4.5 20:48:26 33° ESE 20:50:04 39° E 20:55:40 10° NNE
Meteor 1-4 Rocket 2.4 20:50:30 57° SSW 20:51:09 84° WNW 20:54:42 10° N
NOSS 3-1 (A) 4.4 20:45:34 10° NW 20:52:41 58° NE 20:57:37 26° ESE
Cosmos 1603 4.5 20:48:23 10° NNW 20:53:49 41° NE 20:55:59 30° E
Cosmos 841 Rocket 4.1 20:49:45 10° NNW 20:54:45 44° ENE 20:56:15 35° E
FALCON 9 DEB 3.3 20:55:24 10° WSW 20:58:12 59° NW 20:58:12 59° NW
Cosmos 2219 4.0 20:53:01 10° SW 20:58:29 51° NW 21:03:59 10° NNE
Cosmos 2084 Rocket 4.2 20:57:53 10° WSW 21:01:46 50° NW 21:05:45 10° NE
Cosmos 1763 Rocket 3.3 20:57:42 10° NNW 21:02:48 86° WSW 21:04:17 47° SSE
Terra 1.8 21:03:52 51° SE 21:04:55 68° ENE 21:09:40 10° N
FALCON 9 DEB 4.4 21:03:23 10° WNW 21:06:39 39° N 21:07:41 30° NE
BREEZE-M DEB (TANK) 4.4 21:08:17 10° W 21:08:46 14° WSW 21:08:46 14° WSW
Cosmos 540 Rocket 3.5 21:05:29 10° NNW 21:10:35 64° ENE 21:11:41 50° ESE
Cosmos 921 Rocket 3.6 21:07:47 10° N 21:12:02 43° ENE 21:12:21 42° ENE
SPOT 5 2.9 21:14:08 50° S 21:15:15 72° WSW 21:20:07 10° NNW
NOSS 3-1 (C) 4.0 21:09:13 10° NW 21:16:38 86° SW 21:20:23 38° SE
Meteor 2-2 Rocket 4.1 21:15:42 42° S 21:17:42 79° E 21:23:25 10° NNE
Cosmos 1842 Rocket 3.4 21:20:26 71° S 21:20:54 86° ESE 21:25:24 10° N
SL-16 R/B 3.1 21:17:58 10° NW 21:23:14 40° WSW 21:25:19 29° SSW
USA 215 3.3 21:21:35 42° SSE 21:23:48 65° SW 21:30:19 10° WNW
SL-08 ROCKET BODY 4.3 21:23:53 10° N 21:29:59 89° E 21:31:37 51° S
SL-4 R/B 2.4 21:26:35 10° WSW 21:31:07 75° NNW 21:33:32 29° ENE
COSMOS 2455 3.3 21:28:15 10° SW 21:34:13 62° NW 21:40:13 10° NNE
Cosmos 1408 Rocket 4.2 21:30:05 10° NNW 21:34:15 47° W 21:34:52 44° WSW
ERS-1 Rocket 3.6 21:33:52 38° SW 21:35:13 48° W 21:40:06 10° NNW
ATLAS 5 CENTAUR R/B 4.4 21:35:02 10° NNW 21:38:33 19° NNE 21:42:27 10° ENE
Cosmos 2227 4.2 21:40:44 57° ESE 21:40:54 58° ESE 21:46:33 10° NE
Cosmos 1862 4.1 21:37:43 10° NNW 21:41:31 44° W 21:41:31 44° W
Sich 1 3.6 21:37:50 10° N 21:41:28 46° NE 21:41:28 46° NE
Cosmos 2221 2.9 21:41:54 54° WSW 21:42:19 57° WNW 21:46:34 10° N
Cosmos 1805 Rocket 3.7 21:38:00 10° N 21:41:58 61° NE 21:41:58 61° NE
ARIANE 5 R/B 4.3 21:41:36 22° WSW 21:42:52 25° W 21:46:29 10° NW
Meteor 1-20 Rocket 4.4 21:41:35 10° N 21:47:19 56° ENE 21:48:01 52° ESE
Cosmos 1943 3.0 21:43:42 10° NNW 21:49:22 90° ENE 21:50:06 69° SSE
Cosmos 1745 Rocket 3.9 21:45:44 10° N 21:52:05 89° WSW 21:53:25 59° S
SeaSat 1 3.6 21:48:15 10° NE 21:51:19 30° ENE 21:51:19 30° ENE
Cosmos 1570 Rocket 3.8 21:47:33 10° NNW 21:52:53 90° WSW 21:53:15 78° SSE
Cosmos 1743 Rocket 3.9 21:48:53 10° NNW 21:53:02 56° W 21:53:02 56° W
NOSS 2-1 (C) 4.5 21:56:12 35° N 21:56:12 35° N 21:58:55 10° NNE
Cosmos 1709 Rocket 4.0 21:51:07 10° N 21:57:16 61° ENE 21:58:09 55° ESE
Spot 4 4.2 22:00:15 53° ENE 22:00:15 53° ENE 22:04:57 10° N
Cosmos 1633 Rocket 4.1 21:58:47 10° N 22:02:12 38° NE 22:02:12 38° NE
Cosmos 1606 3.8 22:06:56 42° NNW 22:06:56 42° NNW 22:09:41 10° N
S3M 4.0 22:05:25 57° SSW 22:06:52 85° W 22:13:19 10° N
Cosmos 883 Rocket 4.4 22:06:43 62° SE 22:07:21 66° E 22:13:36 10° NNE
Cosmos 1666 Rocket 4.1 22:09:16 10° N 22:12:59 54° NNE 22:12:59 54° NNE
Cosmos 2263 Rocket 2.2 22:16:15 59° WSW 22:17:13 74° WNW 22:22:49 10° NNE
Aureole 1 Rocket 4.1 22:17:34 39° WSW 22:19:03 51° WNW 22:23:25 10° NNE
Cosmos 968 Rocket 4.3 22:22:53 39° ENE 22:22:53 39° ENE 22:26:45 10° NNE
USA 229 DEB 4.1 22:18:43 10° NW 22:25:48 54° WSW 22:27:01 50° SSW
USA 229 4.1 22:18:48 10° NW 22:25:55 55° WSW 22:27:08 50° SSW
Lacrosse 5 rocket 2.4 22:22:33 10° NW 22:25:34 44° WNW 22:25:34 44° WNW
Cosmos 1782 4.4 22:28:48 30° NE 22:28:48 30° NE 22:31:05 10° NNE
Cosmos 1844 Rocket 3.8 22:30:56 30° ENE 22:30:56 30° ENE 22:34:32 10° NE
Cosmos 1151 Rocket 4.1 22:34:17 41° NNE 22:34:17 41° NNE 22:37:14 10° NNE
Cosmos 2208 Rocket 4.4 22:27:46 10° NNW 22:32:47 53° W 22:32:47 53° W
ALOS 2 3.3 22:35:37 50° NNE 22:35:37 50° NNE 22:39:06 10° N
Cosmos 1603 4.5 22:32:40 10° NW 22:37:52 39° WSW 22:37:52 39° WSW
CZ-4C R/B 4.4 22:34:00 10° NW 22:39:42 30° NNE 22:46:19 10° E
Terra 3.9 22:42:44 17° W 22:43:09 17° W 22:46:12 10° NW
NOSS 3-1 (A) 4.4 22:36:33 10° NW 22:43:48 49° WSW 22:45:03 46° SW
Cosmos 1486 Rocket 4.3 22:57:26 62° NE 22:57:26 62° NE 23:01:59 10° NNE
Meteor 1-5 Rocket 4.2 22:55:56 10° N 23:01:31 72° ENE 23:01:31 72° ENE
Cosmos 2154 Rocket 4.4 22:57:13 10° N 23:03:26 52° ENE 23:04:10 50° E
Meteor 1-14 Rocket 4.2 22:58:33 10° NNW 23:04:34 80° W 23:04:37 79° WSW
Meteor 2-6 Rocket 4.4 23:11:23 59° ENE 23:11:23 59° ENE 23:16:09 10° NNE
SL-4 R/B 3.7 23:06:32 10° WNW 23:09:09 32° WNW 23:09:09 32° WNW
NOSS 2-2 (C) 4.3 23:09:19 10° NW 23:14:35 81° WSW 23:14:35 81° WSW
Cosmos 2184 Rocket 3.8 23:08:16 10° N 23:14:39 86° E 23:14:58 81° SE
NOSS 2-2 (E) 4.4 23:10:22 10° NW 23:15:39 70° WSW 23:15:39 70° WSW
SJ 16-02 4.0 23:17:22 11° ENE 23:17:22 11° ENE 23:17:42 10° ENE
Cosmos 2315 Rocket 4.5 23:16:01 46° WSW 23:17:03 51° WNW 23:23:16 10° N
Cosmos 1515 Rocket 4.5 23:19:41 47° N 23:19:41 47° N 23:22:56 10° N
Cosmos 2278 Rocket 4.2 23:19:29 16° E 23:19:29 16° E 23:22:10 10° ENE
ATLAS 5 CENTAUR R/B 3.1 23:19:17 10° NW 23:24:24 45° NE 23:27:06 28° E
SeaSat 1 3.4 23:25:47 10° NNE 23:30:23 39° NW 23:31:05 37° WNW
Cosmos 1241 Rocket 4.4 23:33:02 77° SE 23:33:15 78° ESE 23:39:53 10° NE
Iridium 4 Rocket 4.5 23:38:02 37° WNW 23:38:02 37° WNW 23:42:53 10° N
Nimbus 7 Rocket 4.4 23:33:45 10° NNE 23:39:36 72° WNW 23:39:53 70° W
Cosmos 2074 Rocket 4.1 23:34:49 10° NNW 23:41:00 61° W 23:41:12 61° WSW
USA 306 4.4 23:43:12 32° NE 23:43:12 32° NE 23:45:43 10° ENE
Cosmos 1844 3.6 23:41:40 84° NNW 23:41:40 84° NNW 23:47:16 10° NNE
COSMOS 2406 4.0 23:38:08 10° NNW 23:43:36 47° NE 23:44:55 40° E
Cosmos 1503 Rocket 4.1 23:44:44 69° N 23:44:44 69° N 23:49:24 10° NNE
USA 281 3.2 23:43:08 64° SE 23:44:16 81° ENE 23:50:52 10° NNW
Cosmos 962 Rocket 4.5 23:45:49 10° N 23:52:01 69° ENE 23:52:36 65° ESE
Gbstr 26 Del rocket 4.3 23:53:47 50° ESE 23:53:47 50° ESE 23:58:05 10° ENE
